^^
Grace C. Lehan Memorial Weather Station Historical Data
Daily Summary for July 12, 2021 Units:  Both    English   Metric
Daily Weekly Monthly Yearly
  High: Low: Average:
Temperature: 73.2 °F /  22.9 °C 60.2 °F /  15.7 °C 65.1 °F /  18.4 °C
Dew Point: 61.9 °F /  16.6 °C 56.2 °F /  13.4 °C 58.6 °F /  14.8 °C
Humidity: 89.9% 65.3% 80%
Wind Speed: 1.2mph /  1.9km/h - 0.1mph /  0.2km/h
Wind Gust: 7mph /  11.3km/h - -
Wind- - South
Pressure: 29.88 in /  1011.7 hPa 29.80 in /  1009 hPa -
Precipitation: 0.06 in /  1.52 mm    
 
 
Tabular Data for July 12, 2021
Time Temperature Dew Point Pressure Wind Wind Speed Wind Gust Humidity Rainfall Rate (Hourly) solar
00:04 63.8 °F /  17.7 °C 56.8 °F /  13.8 °C 29.88in /  1011.7hPa Calm     78% 0.00in /  0mm 0 W/m2
00:09 63.7 °F /  17.6 °C 56.8 °F /  13.8 °C 29.88in /  1011.7hPa Calm   1mph /  1.6km/h 78% 0.00in /  0mm 0 W/m2
00:14 63.7 °F /  17.6 °C 56.7 °F /  13.7 °C 29.88in /  1011.7hPa Calm   1mph /  1.6km/h 78% 0.00in /  0mm 0 W/m2
00:19 63.6 °F /  17.6 °C 56.9 °F /  13.8 °C 29.87in /  1011.4hPa Calm   1mph /  1.6km/h 78.8% 0.00in /  0mm 0 W/m2
00:24 63.6 °F /  17.6 °C 57 °F /  13.9 °C 29.87in /  1011.4hPa Calm   1mph /  1.6km/h 79% 0.00in /  0mm 0 W/m2
00:29 63.6 °F /  17.6 °C 57 °F /  13.9 °C 29.88in /  1011.7hPa Calm   1mph /  1.6km/h 79% 0.00in /  0mm 0 W/m2
00:34 63.5 °F /  17.5 °C 56.9 °F /  13.8 °C 29.87in /  1011.4hPa Calm   1mph /  1.6km/h 79% 0.00in /  0mm 0 W/m2
00:39 63.5 °F /  17.5 °C 56.9 °F /  13.8 °C 29.87in /  1011.4hPa Calm     79% 0.00in /  0mm 0 W/m2
00:44 63.5 °F /  17.5 °C 56.9 °F /  13.8 °C 29.86in /  1011.1hPa Calm     79% 0.00in /  0mm 0 W/m2
00:49 63.4 °F /  17.4 °C 56.8 °F /  13.8 °C 29.86in /  1011.1hPa Calm     79% 0.00in /  0mm 0 W/m2
00:54 63.4 °F /  17.4 °C 56.8 °F /  13.8 °C 29.86in /  1011.1hPa Calm     79% 0.00in /  0mm 0 W/m2
00:59 63.4 °F /  17.4 °C 56.8 °F /  13.8 °C 29.85in /  1010.7hPa Calm     79% 0.00in /  0mm 0 W/m2
01:04 63.3 °F /  17.4 °C 56.8 °F /  13.8 °C 29.85in /  1010.7hPa Calm     79.4% 0.00in /  0mm 0 W/m2
01:09 63.2 °F /  17.3 °C 57 °F /  13.9 °C 29.85in /  1010.7hPa Calm   1mph /  1.6km/h 80% 0.00in /  0mm 0 W/m2
01:14 63.2 °F /  17.3 °C 56.9 °F /  13.8 °C 29.85in /  1010.7hPa Calm   1mph /  1.6km/h 80% 0.00in /  0mm 0 W/m2
01:19 63.1 °F /  17.3 °C 56.9 °F /  13.8 °C 29.85in /  1010.7hPa Calm   1mph /  1.6km/h 80% 0.00in /  0mm 0 W/m2
01:24 63.1 °F /  17.3 °C 56.9 °F /  13.8 °C 29.85in /  1010.7hPa Calm   1mph /  1.6km/h 80% 0.00in /  0mm 0 W/m2
01:29 63.1 °F /  17.3 °C 56.8 °F /  13.8 °C 29.85in /  1010.7hPa Calm   1mph /  1.6km/h 80% 0.00in /  0mm 0 W/m2
01:34 63 °F /  17.2 °C 57 °F /  13.9 °C 29.85in /  1010.7hPa Calm   1mph /  1.6km/h 80.7% 0.00in /  0mm 0 W/m2
01:39 63 °F /  17.2 °C 57.1 °F /  13.9 °C 29.85in /  1010.7hPa Calm     81% 0.00in /  0mm 0 W/m2
01:44 63 °F /  17.2 °C 57.1 °F /  13.9 °C 29.85in /  1010.7hPa Calm     81% 0.00in /  0mm 0 W/m2
01:49 63 °F /  17.2 °C 57.1 °F /  13.9 °C 29.85in /  1010.7hPa Calm     81% 0.00in /  0mm 0 W/m2
01:54 63 °F /  17.2 °C 57.1 °F /  13.9 °C 29.85in /  1010.7hPa Calm     81% 0.00in /  0mm 0 W/m2
01:59 62.9 °F /  17.2 °C 57 °F /  13.9 °C 29.85in /  1010.7hPa Calm     81% 0.00in /  0mm 0 W/m2
02:04 62.9 °F /  17.2 °C 57 °F /  13.9 °C 29.84in /  1010.4hPa Calm     81% 0.00in /  0mm 0 W/m2
02:09 62.8 °F /  17.1 °C 56.9 °F /  13.8 °C 29.84in /  1010.4hPa Calm     81% 0.00in /  0mm 0 W/m2
02:14 62.8 °F /  17.1 °C 56.9 °F /  13.8 °C 29.84in /  1010.4hPa Calm     81% 0.00in /  0mm 0 W/m2
02:19 62.7 °F /  17.1 °C 57 °F /  13.9 °C 29.84in /  1010.4hPa Calm     81.7% 0.00in /  0mm 0 W/m2
02:24 62.7 °F /  17.1 °C 57.1 °F /  13.9 °C 29.85in /  1010.7hPa Calm     82% 0.00in /  0mm 0 W/m2
02:29 62.7 °F /  17.1 °C 57.1 °F /  13.9 °C 29.84in /  1010.4hPa Calm     82% 0.00in /  0mm 0 W/m2
02:34 62.7 °F /  17.1 °C 57.1 °F /  13.9 °C 29.84in /  1010.4hPa Calm     82% 0.00in /  0mm 0 W/m2
02:39 62.7 °F /  17.1 °C 57.1 °F /  13.9 °C 29.84in /  1010.4hPa Calm     82% 0.00in /  0mm 0 W/m2
02:44 62.7 °F /  17.1 °C 57.1 °F /  13.9 °C 29.84in /  1010.4hPa Calm     82% 0.00in /  0mm 0 W/m2
02:49 62.7 °F /  17.1 °C 57.1 °F /  13.9 °C 29.84in /  1010.4hPa Calm     82% 0.00in /  0mm 0 W/m2
02:54 62.6 °F /  17 °C 57 °F /  13.9 °C 29.84in /  1010.4hPa Calm     82% 0.00in /  0mm 0 W/m2
02:59 62.6 °F /  17 °C 57 °F /  13.9 °C 29.84in /  1010.4hPa Calm     82% 0.00in /  0mm 0 W/m2
03:04 62.5 °F /  16.9 °C 57 °F /  13.9 °C 29.83in /  1010hPa Calm     82% 0.00in /  0mm 0 W/m2
03:09 62.5 °F /  16.9 °C 57.1 °F /  13.9 °C 29.83in /  1010hPa Calm     82.5% 0.00in /  0mm 0 W/m2
03:14 62.5 °F /  16.9 °C 56.9 °F /  13.8 °C 29.83in /  1010hPa Calm     82% 0.00in /  0mm 0 W/m2
03:19 62.5 °F /  16.9 °C 57.2 °F /  14 °C 29.83in /  1010hPa Calm     82.8% 0.00in /  0mm 0 W/m2
03:24 62.5 °F /  16.9 °C 57 °F /  13.9 °C 29.83in /  1010hPa Calm     82.2% 0.00in /  0mm 0 W/m2
03:29 62.5 °F /  16.9 °C 56.9 °F /  13.8 °C 29.82in /  1009.7hPa Calm     82% 0.00in /  0mm 0 W/m2
03:34 62.5 °F /  16.9 °C 57.1 °F /  13.9 °C 29.82in /  1009.7hPa Calm     82.5% 0.00in /  0mm 0 W/m2
03:39 62.5 °F /  16.9 °C 57.3 °F /  14.1 °C 29.82in /  1009.7hPa Calm     83% 0.00in /  0mm 0 W/m2
03:44 62.5 °F /  16.9 °C 57.3 °F /  14.1 °C 29.82in /  1009.7hPa Calm     83% 0.00in /  0mm 0 W/m2
03:49 62.5 °F /  16.9 °C 57.3 °F /  14.1 °C 29.82in /  1009.7hPa Calm     83% 0.00in /  0mm 0 W/m2
03:54 62.5 °F /  16.9 °C 57.3 °F /  14.1 °C 29.81in /  1009.4hPa Calm     83% 0.00in /  0mm 0 W/m2
03:59 62.5 °F /  16.9 °C 57.2 °F /  14 °C 29.81in /  1009.4hPa Calm     83% 0.00in /  0mm 0 W/m2
04:04 62.5 °F /  16.9 °C 57.3 °F /  14.1 °C 29.82in /  1009.7hPa Calm     83% 0.00in /  0mm 0 W/m2
04:09 62.5 °F /  16.9 °C 57.3 °F /  14.1 °C 29.82in /  1009.7hPa Calm     83% 0.00in /  0mm 0 W/m2
04:14 62.5 °F /  16.9 °C 57.3 °F /  14.1 °C 29.82in /  1009.7hPa Calm     83% 0.00in /  0mm 0 W/m2
04:19 62.6 °F /  17 °C 57.4 °F /  14.1 °C 29.82in /  1009.7hPa Calm     83% 0.00in /  0mm 0 W/m2
04:24 62.6 °F /  17 °C 57.4 °F /  14.1 °C 29.82in /  1009.7hPa Calm     83% 0.00in /  0mm 0 W/m2
04:29 62.7 °F /  17.1 °C 57.5 °F /  14.2 °C 29.82in /  1009.7hPa Calm     83% 0.00in /  0mm 0 W/m2
04:34 62.7 °F /  17.1 °C 57.5 °F /  14.2 °C 29.81in /  1009.4hPa Calm     83% 0.00in /  0mm 0 W/m2
04:39 62.7 °F /  17.1 °C 57.5 °F /  14.2 °C 29.81in /  1009.4hPa Calm     83% 0.00in /  0mm 0 W/m2
04:44 62.7 °F /  17.1 °C 57.5 °F /  14.2 °C 29.81in /  1009.4hPa Calm     83% 0.00in /  0mm 0 W/m2
04:49 62.7 °F /  17.1 °C 57.4 °F /  14.1 °C 29.81in /  1009.4hPa Calm     83% 0.00in /  0mm 0 W/m2
04:54 62.7 °F /  17.1 °C 57.4 °F /  14.1 °C 29.81in /  1009.4hPa Calm     83% 0.00in /  0mm 0 W/m2
04:59 62.6 °F /  17 °C 57.4 °F /  14.1 °C 29.81in /  1009.4hPa Calm     83% 0.00in /  0mm 0 W/m2
05:04 62.6 °F /  17 °C 57.1 °F /  13.9 °C 29.82in /  1009.7hPa Calm     82.1% 0.00in /  0mm 0 W/m2
05:09 62.6 °F /  17 °C 57 °F /  13.9 °C 29.82in /  1009.7hPa Calm     82% 0.00in /  0mm 0 W/m2
05:14 62.6 °F /  17 °C 57 °F /  13.9 °C 29.82in /  1009.7hPa Calm     82% 0.00in /  0mm 0 W/m2
05:19 62.6 °F /  17 °C 57 °F /  13.9 °C 29.82in /  1009.7hPa Calm     82% 0.00in /  0mm 0 W/m2
05:24 62.6 °F /  17 °C 57.1 °F /  13.9 °C 29.82in /  1009.7hPa Calm     82% 0.00in /  0mm 0 W/m2
05:29 62.7 °F /  17.1 °C 57.1 °F /  13.9 °C 29.82in /  1009.7hPa Calm     82% 0.00in /  0mm 0 W/m2
05:34 62.7 °F /  17.1 °C 57.2 °F /  14 °C 29.83in /  1010hPa Calm     82% 0.00in /  0mm 0 W/m2
05:39 62.8 °F /  17.1 °C 57.2 °F /  14 °C 29.83in /  1010hPa South 0.2mph /  0.3km/h 3mph /  4.8km/h 82% 0.00in /  0mm 0 W/m2
05:44 62.8 °F /  17.1 °C 57.2 °F /  14 °C 29.83in /  1010hPa SSE 0.5mph /  0.8km/h 4mph /  6.4km/h 82% 0.00in /  0mm 0 W/m2
05:49 62.8 °F /  17.1 °C 57.3 °F /  14.1 °C 29.83in /  1010hPa Calm   4mph /  6.4km/h 82.2% 0.00in /  0mm 0 W/m2
05:54 62.8 °F /  17.1 °C 57.4 °F /  14.1 °C 29.83in /  1010hPa SE 0.1mph /  0.2km/h 4mph /  6.4km/h 82.5% 0.00in /  0mm 0 W/m2
05:59 62.8 °F /  17.1 °C 57.4 °F /  14.1 °C 29.83in /  1010hPa SE 1.1mph /  1.8km/h 4mph /  6.4km/h 82.5% 0.00in /  0mm 0 W/m2
06:04 62.8 °F /  17.1 °C 57.3 °F /  14.1 °C 29.83in /  1010hPa East 1.2mph /  1.9km/h 5mph /  8km/h 82% 0.00in /  0mm 5 W/m2
06:09 62.8 °F /  17.1 °C 57.2 °F /  14 °C 29.84in /  1010.4hPa NE 1mph /  1.6km/h 7mph /  11.3km/h 82% 0.00in /  0mm 7 W/m2
06:14 62.8 °F /  17.1 °C 57.2 °F /  14 °C 29.84in /  1010.4hPa ENE 0.4mph /  0.6km/h 7mph /  11.3km/h 82% 0.00in /  0mm 7 W/m2
06:19 62.8 °F /  17.1 °C 57.2 °F /  14 °C 29.84in /  1010.4hPa NE 1.2mph /  1.9km/h 7mph /  11.3km/h 82% 0.00in /  0mm 7 W/m2
06:24 62.7 °F /  17.1 °C 57.2 °F /  14 °C 29.84in /  1010.4hPa ENE 0.4mph /  0.6km/h 7mph /  11.3km/h 82.3% 0.00in /  0mm 11 W/m2
06:29 62.7 °F /  17.1 °C 57.5 °F /  14.2 °C 29.84in /  1010.4hPa ENE 0.6mph /  1km/h 7mph /  11.3km/h 83% 0.00in /  0mm 14 W/m2
06:34 62.7 °F /  17.1 °C 57.6 °F /  14.2 °C 29.84in /  1010.4hPa ENE 0.1mph /  0.2km/h 7mph /  11.3km/h 83.6% 0.00in /  0mm 14 W/m2
06:39 62.6 °F /  17 °C 57.7 °F /  14.3 °C 29.84in /  1010.4hPa ENE 0.3mph /  0.5km/h 3mph /  4.8km/h 84% 0.00in /  0mm 16 W/m2
06:44 62.5 °F /  16.9 °C 57.9 °F /  14.4 °C 29.84in /  1010.4hPa ENE 0.1mph /  0.2km/h 3mph /  4.8km/h 84.9% 0.00in /  0mm 23 W/m2
06:49 62.5 °F /  16.9 °C 58.1 °F /  14.5 °C 29.84in /  1010.4hPa ENE 0.7mph /  1.1km/h 5mph /  8km/h 85.5% 0.00in /  0mm 33 W/m2
06:54 62.3 °F /  16.8 °C 58.1 °F /  14.5 °C 29.84in /  1010.4hPa ENE 0.3mph /  0.5km/h 5mph /  8km/h 86% 0.00in /  0mm 35 W/m2
06:59 62.3 °F /  16.8 °C 58.1 °F /  14.5 °C 29.84in /  1010.4hPa Calm   5mph /  8km/h 86% 0.00in /  0mm 25 W/m2
07:04 62.3 °F /  16.8 °C 58 °F /  14.4 °C 29.84in /  1010.4hPa ENE 0.5mph /  0.8km/h 5mph /  8km/h 86% 0.01in /  0.25mm 18 W/m2
07:09 62.2 °F /  16.8 °C 58.3 °F /  14.6 °C 29.84in /  1010.4hPa Calm   4mph /  6.4km/h 87% 0.01in /  0.25mm 33 W/m2
07:14 62.2 °F /  16.8 °C 58.5 °F /  14.7 °C 29.84in /  1010.4hPa ENE 0.3mph /  0.5km/h 4mph /  6.4km/h 87.8% 0.01in /  0.25mm 46 W/m2
07:19 62.2 °F /  16.8 °C 58.6 °F /  14.8 °C 29.84in /  1010.4hPa Calm   4mph /  6.4km/h 88% 0.01in /  0.25mm 49 W/m2
07:24 62.3 °F /  16.8 °C 58.9 °F /  14.9 °C 29.84in /  1010.4hPa ENE 0.1mph /  0.2km/h 4mph /  6.4km/h 88.7% 0.01in /  0.25mm 51 W/m2
07:29 62.3 °F /  16.8 °C 59 °F /  15 °C 29.84in /  1010.4hPa Calm   4mph /  6.4km/h 89% 0.01in /  0.25mm 42 W/m2
07:34 62.3 °F /  16.8 °C 59 °F /  15 °C 29.84in /  1010.4hPa Calm   4mph /  6.4km/h 89% 0.01in /  0.25mm 25 W/m2
07:39 62.2 °F /  16.8 °C 59 °F /  15 °C 29.84in /  1010.4hPa Calm     89% 0.01in /  0.25mm 26 W/m2
07:44 62.2 °F /  16.8 °C 58.9 °F /  14.9 °C 29.84in /  1010.4hPa Calm     89% 0.01in /  0.25mm 25 W/m2
07:49 62 °F /  16.7 °C 58.7 °F /  14.8 °C 29.84in /  1010.4hPa ENE 0.1mph /  0.2km/h 3mph /  4.8km/h 88.7% 0.01in /  0.25mm 18 W/m2
07:54 61.9 °F /  16.6 °C 58.3 °F /  14.6 °C 29.85in /  1010.7hPa Calm   3mph /  4.8km/h 88.1% 0.01in /  0.25mm 21 W/m2
07:59 61.8 °F /  16.6 °C 58.5 °F /  14.7 °C 29.85in /  1010.7hPa Calm   3mph /  4.8km/h 89% 0.02in /  0.51mm 23 W/m2
08:00 61.8 °F /  16.6 °C 58.5 °F /  14.7 °C 29.85in /  1010.7hPa Calm   3mph /  4.8km/h 89% 0.02in /  0.51mm 18 W/m2
08:09 61.9 °F /  16.6 °C 58.6 °F /  14.8 °C 29.85in /  1010.7hPa Calm     89% 0.04in /  1.02mm 33 W/m2
08:14 61.8 °F /  16.6 °C 58.5 °F /  14.7 °C 29.85in /  1010.7hPa Calm   1mph /  1.6km/h 89% 0.04in /  1.02mm 54 W/m2
08:19 61.7 °F /  16.5 °C 58.4 °F /  14.7 °C 29.85in /  1010.7hPa Calm   1mph /  1.6km/h 89% 0.04in /  1.02mm 42 W/m2
08:24 61.6 °F /  16.4 °C 58.5 °F /  14.7 °C 29.85in /  1010.7hPa Calm   1mph /  1.6km/h 89.6% 0.04in /  1.02mm 30 W/m2
08:29 61.4 °F /  16.3 °C 58.2 °F /  14.6 °C 29.85in /  1010.7hPa Calm   1mph /  1.6km/h 89.3% 0.04in /  1.02mm 39 W/m2
08:34 61.2 °F /  16.2 °C 58 °F /  14.4 °C 29.85in /  1010.7hPa Calm   1mph /  1.6km/h 89% 0.04in /  1.02mm 76 W/m2
08:39 61.1 °F /  16.2 °C 57.8 °F /  14.3 °C 29.85in /  1010.7hPa Calm     89% 0.03in /  0.76mm 77 W/m2
08:44 61 °F /  16.1 °C 57.8 °F /  14.3 °C 29.85in /  1010.7hPa Calm     89.3% 0.03in /  0.76mm 67 W/m2
08:49 61 °F /  16.1 °C 58 °F /  14.4 °C 29.85in /  1010.7hPa Calm     89.9% 0.03in /  0.76mm 67 W/m2
08:54 60.8 °F /  16 °C 57.5 °F /  14.2 °C 29.86in /  1011.1hPa Calm     88.7% 0.04in /  1.02mm 69 W/m2
08:59 60.5 °F /  15.8 °C 57 °F /  13.9 °C 29.86in /  1011.1hPa Calm     88% 0.04in /  1.02mm 69 W/m2
09:04 60.4 °F /  15.8 °C 56.8 °F /  13.8 °C 29.86in /  1011.1hPa Calm     88% 0.04in /  1.02mm 33 W/m2
09:09 60.3 °F /  15.7 °C 56.4 °F /  13.6 °C 29.86in /  1011.1hPa Calm     87% 0.03in /  0.76mm 37 W/m2
09:14 60.2 °F /  15.7 °C 56.4 °F /  13.6 °C 29.86in /  1011.1hPa Calm     87.2% 0.03in /  0.76mm 53 W/m2
09:19 60.2 °F /  15.7 °C 56.6 °F /  13.7 °C 29.86in /  1011.1hPa Calm     88% 0.04in /  1.02mm 63 W/m2
09:24 60.3 °F /  15.7 °C 56.7 °F /  13.7 °C 29.86in /  1011.1hPa Calm     88% 0.04in /  1.02mm 127 W/m2
09:29 60.3 °F /  15.7 °C 57.1 °F /  13.9 °C 29.86in /  1011.1hPa Calm     88.9% 0.04in /  1.02mm 146 W/m2
09:34 60.3 °F /  15.7 °C 57.1 °F /  13.9 °C 29.86in /  1011.1hPa Calm     89% 0.04in /  1.02mm 128 W/m2
09:39 60.4 °F /  15.8 °C 57.1 °F /  13.9 °C 29.85in /  1010.7hPa Calm     89% 0.02in /  0.51mm 125 W/m2
09:44 60.4 °F /  15.8 °C 57.2 °F /  14 °C 29.86in /  1011.1hPa Calm     89% 0.02in /  0.51mm 116 W/m2
09:49 60.5 °F /  15.8 °C 57.2 °F /  14 °C 29.86in /  1011.1hPa Calm     89% 0.02in /  0.51mm 97 W/m2
09:54 60.4 °F /  15.8 °C 56.8 °F /  13.8 °C 29.86in /  1011.1hPa Calm     88% 0.02in /  0.51mm 88 W/m2
09:59 60.3 °F /  15.7 °C 56.6 °F /  13.7 °C 29.85in /  1010.7hPa Calm     87.7% 0.02in /  0.51mm 83 W/m2
10:04 60.2 °F /  15.7 °C 56.4 °F /  13.6 °C 29.85in /  1010.7hPa Calm     87.2% 0.02in /  0.51mm 86 W/m2
10:09 60.2 °F /  15.7 °C 56.2 °F /  13.4 °C 29.86in /  1011.1hPa Calm     86.8% 0.01in /  0.25mm 111 W/m2
10:14 60.2 °F /  15.7 °C 56.2 °F /  13.4 °C 29.86in /  1011.1hPa Calm     86.7% 0.01in /  0.25mm 135 W/m2
10:19 60.3 °F /  15.7 °C 56.5 °F /  13.6 °C 29.86in /  1011.1hPa Calm     87% 0.01in /  0.25mm 130 W/m2
10:24 60.5 °F /  15.8 °C 56.6 °F /  13.7 °C 29.86in /  1011.1hPa Calm     87% 0.01in /  0.25mm 167 W/m2
10:29 60.7 °F /  15.9 °C 57.1 °F /  13.9 °C 29.85in /  1010.7hPa Calm     87.7% 0.01in /  0.25mm 206 W/m2
10:34 61.1 °F /  16.2 °C 57.6 °F /  14.2 °C 29.85in /  1010.7hPa Calm     88% 0.01in /  0.25mm 251 W/m2
10:39 61.5 °F /  16.4 °C 57.5 °F /  14.2 °C 29.85in /  1010.7hPa Calm     86.8% 0.00in /  0mm 260 W/m2
10:44 61.8 °F /  16.6 °C 57.4 °F /  14.1 °C 29.85in /  1010.7hPa Calm     85.5% 0.00in /  0mm 420 W/m2
10:49 62.3 °F /  16.8 °C 57.9 °F /  14.4 °C 29.85in /  1010.7hPa Calm     85.6% 0.00in /  0mm 598 W/m2
10:54 62.9 °F /  17.2 °C 58.2 °F /  14.6 °C 29.85in /  1010.7hPa Calm     84.8% 0.00in /  0mm 575 W/m2
10:59 63.6 °F /  17.6 °C 59 °F /  15 °C 29.85in /  1010.7hPa ENE 0.1mph /  0.2km/h 2mph /  3.2km/h 84.9% 0.00in /  0mm 512 W/m2
11:04 64.2 °F /  17.9 °C 59.1 °F /  15.1 °C 29.85in /  1010.7hPa Calm   2mph /  3.2km/h 83.6% 0.00in /  0mm 383 W/m2
11:09 64.5 °F /  18.1 °C 58.7 °F /  14.8 °C 29.85in /  1010.7hPa Calm     81.7% 0.00in /  0mm 369 W/m2
11:14 64.8 °F /  18.2 °C 59.2 °F /  15.1 °C 29.85in /  1010.7hPa Calm     82% 0.00in /  0mm 369 W/m2
11:19 65.1 °F /  18.4 °C 59.1 °F /  15.1 °C 29.85in /  1010.7hPa Calm     81% 0.00in /  0mm 376 W/m2
11:24 65.4 °F /  18.6 °C 59.3 °F /  15.2 °C 29.85in /  1010.7hPa Calm   1mph /  1.6km/h 80.6% 0.00in /  0mm 439 W/m2
11:29 65.5 °F /  18.6 °C 58.4 °F /  14.7 °C 29.85in /  1010.7hPa Calm   1mph /  1.6km/h 78% 0.00in /  0mm 710 W/m2
11:34 65.9 °F /  18.8 °C 59.7 °F /  15.4 °C 29.85in /  1010.7hPa Calm   1mph /  1.6km/h 80.4% 0.00in /  0mm 710 W/m2
11:39 66.4 °F /  19.1 °C 59.4 °F /  15.2 °C 29.85in /  1010.7hPa Calm     78.2% 0.00in /  0mm 895 W/m2
11:44 66.6 °F /  19.2 °C 59 °F /  15 °C 29.85in /  1010.7hPa ENE 0.3mph /  0.5km/h 2mph /  3.2km/h 76.4% 0.00in /  0mm 895 W/m2
11:49 66.6 °F /  19.2 °C 58.7 °F /  14.8 °C 29.85in /  1010.7hPa Calm   2mph /  3.2km/h 75.9% 0.00in /  0mm 529 W/m2
11:54 66.5 °F /  19.2 °C 59.1 °F /  15.1 °C 29.85in /  1010.7hPa NE 0.5mph /  0.8km/h 5mph /  8km/h 76.9% 0.00in /  0mm 353 W/m2
11:59 66.8 °F /  19.3 °C 59.5 °F /  15.3 °C 29.85in /  1010.7hPa West 0.6mph /  1km/h 5mph /  8km/h 77.5% 0.00in /  0mm 281 W/m2
12:00 66.9 °F /  19.4 °C 59.5 °F /  15.3 °C 29.85in /  1010.7hPa Calm   5mph /  8km/h 77% 0.00in /  0mm 281 W/m2
12:09 67.2 °F /  19.6 °C 59.4 °F /  15.2 °C 29.85in /  1010.7hPa Calm     76% 0.00in /  0mm 220 W/m2
12:14 67.3 °F /  19.6 °C 59.2 °F /  15.1 °C 29.85in /  1010.7hPa Calm     75.2% 0.00in /  0mm 167 W/m2
12:19 67.2 °F /  19.6 °C 58.6 °F /  14.8 °C 29.85in /  1010.7hPa Calm     73.7% 0.00in /  0mm 169 W/m2
12:24 67.1 °F /  19.5 °C 58.5 °F /  14.7 °C 29.85in /  1010.7hPa Calm     73.9% 0.00in /  0mm 158 W/m2
12:29 66.9 °F /  19.4 °C 58.7 °F /  14.8 °C 29.85in /  1010.7hPa Calm     74.9% 0.00in /  0mm 121 W/m2
12:34 66.9 °F /  19.4 °C 59.6 °F /  15.3 °C 29.85in /  1010.7hPa Calm     77.2% 0.00in /  0mm 113 W/m2
12:39 67 °F /  19.4 °C 59.3 °F /  15.2 °C 29.85in /  1010.7hPa Calm     76.4% 0.00in /  0mm 98 W/m2
12:44 66.9 °F /  19.4 °C 59.3 °F /  15.2 °C 29.85in /  1010.7hPa Calm     76.5% 0.00in /  0mm 114 W/m2
12:49 66.9 °F /  19.4 °C 59.1 °F /  15.1 °C 29.85in /  1010.7hPa Calm     76% 0.00in /  0mm 128 W/m2
12:54 66.9 °F /  19.4 °C 59.6 °F /  15.3 °C 29.85in /  1010.7hPa Calm   1mph /  1.6km/h 77.2% 0.00in /  0mm 127 W/m2
12:59 67.1 °F /  19.5 °C 60 °F /  15.6 °C 29.85in /  1010.7hPa West 0.2mph /  0.3km/h 3mph /  4.8km/h 78.2% 0.00in /  0mm 156 W/m2
13:04 67 °F /  19.4 °C 59.8 °F /  15.4 °C 29.85in /  1010.7hPa Calm   3mph /  4.8km/h 77.5% 0.00in /  0mm 190 W/m2
13:09 66.9 °F /  19.4 °C 59.9 °F /  15.5 °C 29.85in /  1010.7hPa Calm   2mph /  3.2km/h 78.1% 0.00in /  0mm 257 W/m2
13:14 67 °F /  19.4 °C 60.5 °F /  15.8 °C 29.85in /  1010.7hPa Calm   2mph /  3.2km/h 79.6% 0.00in /  0mm 315 W/m2
13:19 67.4 °F /  19.7 °C 60.9 °F /  16.1 °C 29.85in /  1010.7hPa West 0.1mph /  0.2km/h 2mph /  3.2km/h 79.5% 0.00in /  0mm 329 W/m2
13:24 68 °F /  20 °C 61.4 °F /  16.3 °C 29.85in /  1010.7hPa Calm   2mph /  3.2km/h 79.7% 0.00in /  0mm 338 W/m2
13:29 68.3 °F /  20.2 °C 60.9 °F /  16.1 °C 29.85in /  1010.7hPa West 0.7mph /  1.1km/h 3mph /  4.8km/h 77.3% 0.00in /  0mm 359 W/m2
13:34 68.6 °F /  20.3 °C 61.1 °F /  16.2 °C 29.85in /  1010.7hPa Calm   3mph /  4.8km/h 77.1% 0.00in /  0mm 364 W/m2
13:39 68.8 °F /  20.4 °C 60.8 °F /  16 °C 29.85in /  1010.7hPa West 0.5mph /  0.8km/h 4mph /  6.4km/h 75.8% 0.00in /  0mm 367 W/m2
13:44 68.9 °F /  20.5 °C 61 °F /  16.1 °C 29.85in /  1010.7hPa Calm   4mph /  6.4km/h 75.8% 0.00in /  0mm 390 W/m2
13:49 69 °F /  20.6 °C 61 °F /  16.1 °C 29.85in /  1010.7hPa West 0.2mph /  0.3km/h 4mph /  6.4km/h 75.8% 0.00in /  0mm 360 W/m2
13:54 69.2 °F /  20.7 °C 61.3 °F /  16.3 °C 29.85in /  1010.7hPa Calm   4mph /  6.4km/h 75.9% 0.00in /  0mm 367 W/m2
13:59 69.5 °F /  20.8 °C 61.6 °F /  16.4 °C 29.85in /  1010.7hPa Calm   4mph /  6.4km/h 75.9% 0.00in /  0mm 339 W/m2
14:04 69.8 °F /  21 °C 61.8 °F /  16.6 °C 29.85in /  1010.7hPa Calm   4mph /  6.4km/h 75.6% 0.00in /  0mm 315 W/m2
14:09 70.1 °F /  21.2 °C 61.2 °F /  16.2 °C 29.84in /  1010.4hPa Calm   1mph /  1.6km/h 73.4% 0.00in /  0mm 299 W/m2
14:14 70.1 °F /  21.2 °C 60.6 °F /  15.9 °C 29.84in /  1010.4hPa Calm   1mph /  1.6km/h 71.9% 0.00in /  0mm 274 W/m2
14:19 70.1 °F /  21.2 °C 61.1 °F /  16.2 °C 29.84in /  1010.4hPa West 0.1mph /  0.2km/h 3mph /  4.8km/h 73% 0.00in /  0mm 241 W/m2
14:24 70.1 °F /  21.2 °C 61 °F /  16.1 °C 29.84in /  1010.4hPa West 0.7mph /  1.1km/h 5mph /  8km/h 72.8% 0.00in /  0mm 188 W/m2
14:29 70.1 °F /  21.2 °C 60.9 °F /  16.1 °C 29.84in /  1010.4hPa West 0.1mph /  0.2km/h 5mph /  8km/h 72.8% 0.00in /  0mm 155 W/m2
14:34 70 °F /  21.1 °C 60.8 °F /  16 °C 29.84in /  1010.4hPa West 0.1mph /  0.2km/h 5mph /  8km/h 72.4% 0.00in /  0mm 141 W/m2
14:39 69.9 °F /  21.1 °C 60.6 °F /  15.9 °C 29.84in /  1010.4hPa Calm   2mph /  3.2km/h 72.2% 0.00in /  0mm 142 W/m2
14:44 69.7 °F /  20.9 °C 60.5 °F /  15.8 °C 29.84in /  1010.4hPa West 0.4mph /  0.6km/h 3mph /  4.8km/h 72.8% 0.00in /  0mm 167 W/m2
14:49 69.5 °F /  20.8 °C 61 °F /  16.1 °C 29.84in /  1010.4hPa Calm   3mph /  4.8km/h 74.4% 0.00in /  0mm 234 W/m2
14:54 69.5 °F /  20.8 °C 60.9 °F /  16.1 °C 29.84in /  1010.4hPa Calm   3mph /  4.8km/h 74% 0.00in /  0mm 422 W/m2
14:57 69.6 °F /  20.9 °C 61 °F /  16.1 °C 29.84in /  1010.4hPa Calm   3mph /  4.8km/h 74% 0.00in /  0mm 605 W/m2
15:00 69.8 °F /  21 °C 61.5 °F /  16.4 °C 29.83in /  1010hPa Calm   4mph /  6.4km/h 75% 0.00in /  0mm 226 W/m2
15:30 72.6 °F /  22.6 °C 61.9 °F /  16.6 °C 29.83in /  1010hPa Calm   6mph /  9.7km/h 69% 0.00in /  0mm 778 W/m2
16:04 72.4 °F /  22.4 °C 60.5 °F /  15.8 °C 29.83in /  1010hPa Calm   6mph /  9.7km/h 66.2% 0.00in /  0mm 778 W/m2
16:09 72.3 °F /  22.4 °C 60.7 °F /  15.9 °C 29.83in /  1010hPa West 0.3mph /  0.5km/h 5mph /  8km/h 66.8% 0.00in /  0mm 754 W/m2
16:14 72.3 °F /  22.4 °C 61.2 °F /  16.2 °C 29.83in /  1010hPa West 0.3mph /  0.5km/h 5mph /  8km/h 68.2% 0.00in /  0mm 754 W/m2
16:19 72.2 °F /  22.3 °C 61.1 °F /  16.2 °C 29.83in /  1010hPa West 0.1mph /  0.2km/h 5mph /  8km/h 68.1% 0.00in /  0mm 179 W/m2
16:24 72.1 °F /  22.3 °C 61.5 °F /  16.4 °C 29.83in /  1010hPa West 0.1mph /  0.2km/h 5mph /  8km/h 69.2% 0.00in /  0mm 169 W/m2
16:29 72.1 °F /  22.3 °C 61.5 °F /  16.4 °C 29.83in /  1010hPa West 0.1mph /  0.2km/h 5mph /  8km/h 69.3% 0.00in /  0mm 148 W/m2
16:34 72.3 °F /  22.4 °C 61.7 °F /  16.5 °C 29.83in /  1010hPa Calm   5mph /  8km/h 69.5% 0.00in /  0mm 127 W/m2
16:39 72.6 °F /  22.6 °C 61.8 °F /  16.6 °C 29.82in /  1009.7hPa West 0.3mph /  0.5km/h 3mph /  4.8km/h 68.9% 0.00in /  0mm 135 W/m2
16:44 72.9 °F /  22.7 °C 61.4 °F /  16.3 °C 29.82in /  1009.7hPa West 0.1mph /  0.2km/h 3mph /  4.8km/h 67.1% 0.00in /  0mm 102 W/m2
16:49 73 °F /  22.8 °C 61.5 °F /  16.4 °C 29.82in /  1009.7hPa West 0.3mph /  0.5km/h 3mph /  4.8km/h 67.2% 0.00in /  0mm 84 W/m2
16:54 73.1 °F /  22.8 °C 61.4 °F /  16.3 °C 29.82in /  1009.7hPa WSW 0.7mph /  1.1km/h 7mph /  11.3km/h 66.7% 0.00in /  0mm 70 W/m2
16:59 73.2 °F /  22.9 °C 61.6 °F /  16.4 °C 29.81in /  1009.4hPa Calm   7mph /  11.3km/h 66.9% 0.00in /  0mm 58 W/m2
17:04 73.2 °F /  22.9 °C 61 °F /  16.1 °C 29.81in /  1009.4hPa Calm   7mph /  11.3km/h 65.6% 0.00in /  0mm 54 W/m2
17:09 73 °F /  22.8 °C 60.7 °F /  15.9 °C 29.81in /  1009.4hPa WSW 0.1mph /  0.2km/h 2mph /  3.2km/h 65.4% 0.00in /  0mm 51 W/m2
17:14 72.9 °F /  22.7 °C 60.7 °F /  15.9 °C 29.81in /  1009.4hPa Calm   2mph /  3.2km/h 65.5% 0.00in /  0mm 46 W/m2
17:19 72.6 °F /  22.6 °C 60.3 °F /  15.7 °C 29.81in /  1009.4hPa WSW 0.5mph /  0.8km/h 6mph /  9.7km/h 65.3% 0.00in /  0mm 44 W/m2
17:24 72.5 °F /  22.5 °C 60.5 °F /  15.8 °C 29.81in /  1009.4hPa WSW 0.2mph /  0.3km/h 6mph /  9.7km/h 66% 0.00in /  0mm 42 W/m2
17:29 72.4 °F /  22.4 °C 60.5 °F /  15.8 °C 29.81in /  1009.4hPa WSW 0.3mph /  0.5km/h 6mph /  9.7km/h 66.1% 0.00in /  0mm 42 W/m2
17:34 72.4 °F /  22.4 °C 60.6 °F /  15.9 °C 29.81in /  1009.4hPa WSW 0.1mph /  0.2km/h 6mph /  9.7km/h 66.4% 0.00in /  0mm 42 W/m2
17:39 72.4 °F /  22.4 °C 60.4 °F /  15.8 °C 29.81in /  1009.4hPa Calm   1mph /  1.6km/h 66% 0.00in /  0mm 42 W/m2
17:44 72.4 °F /  22.4 °C 60.6 °F /  15.9 °C 29.81in /  1009.4hPa Calm   1mph /  1.6km/h 66.3% 0.00in /  0mm 44 W/m2
17:49 72.5 °F /  22.5 °C 61 °F /  16.1 °C 29.81in /  1009.4hPa WSW 0.2mph /  0.3km/h 5mph /  8km/h 67.2% 0.00in /  0mm 42 W/m2
17:54 72.4 °F /  22.4 °C 60.3 °F /  15.7 °C 29.81in /  1009.4hPa Calm   5mph /  8km/h 65.6% 0.00in /  0mm 40 W/m2
17:55 72.4 °F /  22.4 °C 60.4 °F /  15.8 °C 29.80in /  1009hPa Calm   5mph /  8km/h 66% 0.00in /  0mm 39 W/m2
18:30 72.8 °F /  22.7 °C 60.8 °F /  16 °C 29.81in /  1009.4hPa Calm   2mph /  3.2km/h 66% 0.00in /  0mm 34 W/m2
19:00 72.6 °F /  22.6 °C 61 °F /  16.1 °C 29.82in /  1009.7hPa Calm   4mph /  6.4km/h 67% 0.00in /  0mm 31 W/m2
19:30 71.8 °F /  22.1 °C 61.5 °F /  16.4 °C 29.81in /  1009.4hPa Calm   5mph /  8km/h 70% 0.00in /  0mm 25 W/m2
20:04 70.2 °F /  21.2 °C 61.4 °F /  16.3 °C 29.81in /  1009.4hPa Calm     73.6% 0.00in /  0mm 11 W/m2
20:09 70 °F /  21.1 °C 61.4 °F /  16.3 °C 29.81in /  1009.4hPa Calm     74% 0.00in /  0mm 9 W/m2
20:14 69.8 °F /  21 °C 61.3 °F /  16.3 °C 29.81in /  1009.4hPa WSW 0.1mph /  0.2km/h 2mph /  3.2km/h 74.2% 0.00in /  0mm 5 W/m2
20:19 69.5 °F /  20.8 °C 61.3 °F /  16.3 °C 29.81in /  1009.4hPa Calm   2mph /  3.2km/h 75% 0.00in /  0mm 5 W/m2
20:24 69.3 °F /  20.7 °C 61 °F /  16.1 °C 29.81in /  1009.4hPa WSW 0.2mph /  0.3km/h 5mph /  8km/h 75% 0.00in /  0mm 0 W/m2
20:29 68.9 °F /  20.5 °C 60.9 °F /  16.1 °C 29.81in /  1009.4hPa WSW 0.1mph /  0.2km/h 5mph /  8km/h 75.6% 0.00in /  0mm 0 W/m2
20:34 68.6 °F /  20.3 °C 60.8 °F /  16 °C 29.81in /  1009.4hPa Calm   5mph /  8km/h 76% 0.00in /  0mm 0 W/m2
20:39 68.3 °F /  20.2 °C 60.7 °F /  15.9 °C 29.82in /  1009.7hPa Calm     76.7% 0.00in /  0mm 0 W/m2
20:43 68.1 °F /  20.1 °C 60.6 °F /  15.9 °C 29.82in /  1009.7hPa Calm     77% 0.00in /  0mm 0 W/m2
Hartford County Weather
Compliments of Weather Underground - 2 mb